Time,TemperatureF,DewpointF,PressureIn,WindDirection,WindDirectionDegrees,WindSpeedMPH,WindSpeedGustMPH,Humidity,HourlyPrecipIn,Conditions,Clouds,dailyrainin,SoftwareType,DateUTC
2013-09-14 00:01:00,48.0,43.7,30.07,NNE,22,5.0,7.0,85,0.00,,---,0.00,VWS V14.01,2013-09-14 04:01:00,
2013-09-14 00:02:00,49.0,44.7,30.07,North,0,1.0,8.0,85,0.00,,---,0.00,VWS V14.01,2013-09-14 04:02:00,
2013-09-14 00:03:00,49.0,44.7,30.07,NNW,338,1.0,8.0,85,0.00,,---,0.00,VWS V14.01,2013-09-14 04:03:00,
2013-09-14 00:08:00,48.0,43.7,30.07,North,0,5.0,10.0,85,0.00,,---,0.00,VWS V14.01,2013-09-14 04:08:00,
2013-09-14 00:09:00,48.0,43.7,30.07,NNW,338,4.0,10.0,85,0.00,,---,0.00,VWS V14.01,2013-09-14 04:09:00,
2013-09-14 00:14:00,48.0,43.7,30.07,NNE,22,3.0,10.0,85,0.00,,---,0.00,VWS V14.01,2013-09-14 04:14:00,
2013-09-14 00:19:00,48.0,43.4,30.07,North,0,6.0,10.0,84,0.00,,---,0.00,VWS V14.01,2013-09-14 04:19:00,
2013-09-14 00:24:00,48.0,43.7,30.06,North,0,3.0,7.0,85,0.00,,---,0.00,VWS V14.01,2013-09-14 04:24:00,
2013-09-14 00:29:00,48.0,43.4,30.06,NNE,22,7.0,10.0,84,0.00,,---,0.00,VWS V14.01,2013-09-14 04:29:00,
2013-09-14 00:34:00,48.0,43.4,30.07,North,0,2.0,10.0,84,0.00,,---,0.00,VWS V14.01,2013-09-14 04:34:00,
2013-09-14 00:39:00,48.0,43.4,30.07,North,0,6.0,8.0,84,0.00,,---,0.00,VWS V14.01,2013-09-14 04:39:00,
2013-09-14 00:45:00,48.0,43.4,30.07,NNW,338,3.0,9.0,84,0.00,,---,0.00,VWS V14.01,2013-09-14 04:45:00,
2013-09-14 00:50:00,48.0,43.4,30.07,North,0,4.0,9.0,84,0.00,,---,0.00,VWS V14.01,2013-09-14 04:50:00,
2013-09-14 00:55:00,48.0,43.4,30.07,North,0,3.0,9.0,84,0.00,,---,0.00,VWS V14.01,2013-09-14 04:55:00,
2013-09-14 01:00:00,48.0,43.1,30.07,NNE,22,3.0,6.0,83,0.00,,---,0.00,VWS V14.01,2013-09-14 05:00:00,
2013-09-14 01:05:00,48.0,43.4,30.07,NNW,338,4.0,8.0,84,0.00,,---,0.00,VWS V14.01,2013-09-14 05:05:00,
2013-09-14 01:10:00,48.0,43.1,30.07,North,0,3.0,8.0,83,0.00,,---,0.00,VWS V14.01,2013-09-14 05:10:00,
2013-09-14 01:15:00,48.0,43.1,30.07,North,0,3.0,8.0,83,0.00,,---,0.00,VWS V14.01,2013-09-14 05:15:00,
2013-09-14 01:20:00,48.0,42.8,30.07,NW,315,5.0,9.0,82,0.00,,---,0.00,VWS V14.01,2013-09-14 05:20:00,
2013-09-14 01:26:00,48.0,43.1,30.07,ENE,68,1.0,9.0,83,0.00,,---,0.00,VWS V14.01,2013-09-14 05:26:00,
2013-09-14 01:31:00,48.0,43.1,30.07,NNW,338,2.0,9.0,83,0.00,,---,0.00,VWS V14.01,2013-09-14 05:31:00,
2013-09-14 01:36:00,48.0,42.8,30.07,NNW,338,3.0,9.0,82,0.00,,---,0.00,VWS V14.01,2013-09-14 05:36:00,
2013-09-14 01:41:00,48.0,42.8,30.08,NNW,338,4.0,8.0,82,0.00,,---,0.00,VWS V14.01,2013-09-14 05:41:00,
2013-09-14 01:46:00,48.0,42.8,30.07,North,0,5.0,9.0,82,0.00,,---,0.00,VWS V14.01,2013-09-14 05:46:00,
2013-09-14 01:51:00,48.0,42.8,30.07,NNW,338,6.0,11.0,82,0.00,,---,0.00,VWS V14.01,2013-09-14 05:51:00,
2013-09-14 01:56:00,48.0,42.8,30.08,NNW,338,7.0,11.0,82,0.00,,---,0.00,VWS V14.01,2013-09-14 05:56:00,
2013-09-14 02:02:00,48.0,42.5,30.07,NNW,338,2.0,8.0,81,0.00,,---,0.00,VWS V14.01,2013-09-14 06:02:00,
2013-09-14 02:07:00,48.0,42.5,30.07,NNW,338,5.0,8.0,81,0.00,,---,0.00,VWS V14.01,2013-09-14 06:07:00,
2013-09-14 02:12:00,48.0,42.5,30.07,NNE,22,3.0,8.0,81,0.00,,---,0.00,VWS V14.01,2013-09-14 06:12:00,
2013-09-14 02:17:00,48.0,42.1,30.07,NNW,338,5.0,8.0,80,0.00,,---,0.00,VWS V14.01,2013-09-14 06:17:00,
2013-09-14 02:22:00,48.0,42.1,30.07,North,0,5.0,8.0,80,0.00,,---,0.00,VWS V14.01,2013-09-14 06:22:00,
2013-09-14 02:27:00,48.0,42.5,30.07,NNW,338,5.0,8.0,81,0.00,,---,0.00,VWS V14.01,2013-09-14 06:27:00,
2013-09-14 02:32:00,48.0,42.5,30.07,North,0,1.0,8.0,81,0.00,,---,0.00,VWS V14.01,2013-09-14 06:32:00,
2013-09-14 02:37:00,48.0,42.5,30.08,NNW,338,4.0,8.0,81,0.00,,---,0.00,VWS V14.01,2013-09-14 06:37:00,
2013-09-14 02:42:00,48.0,42.1,30.07,North,0,2.0,8.0,80,0.00,,---,0.00,VWS V14.01,2013-09-14 06:42:00,
2013-09-14 02:48:00,48.0,42.5,30.07,NW,315,5.0,9.0,81,0.00,,---,0.00,VWS V14.01,2013-09-14 06:48:00,
2013-09-14 02:53:00,48.0,42.5,30.08,WNW,292,3.0,9.0,81,0.00,,---,0.00,VWS V14.01,2013-09-14 06:53:00,
2013-09-14 02:58:00,48.0,42.5,30.08,North,0,3.0,10.0,81,0.00,,---,0.00,VWS V14.01,2013-09-14 06:58:00,
2013-09-14 03:03:00,48.0,42.5,30.08,North,0,6.0,6.0,81,0.00,,---,0.00,VWS V14.01,2013-09-14 07:03:00,
2013-09-14 03:08:00,48.0,42.8,30.08,NNW,338,3.0,7.0,82,0.00,,---,0.00,VWS V14.01,2013-09-14 07:08:00,
2013-09-14 03:13:00,48.0,42.8,30.07,NNW,338,4.0,7.0,82,0.00,,---,0.00,VWS V14.01,2013-09-14 07:13:00,
2013-09-14 03:18:00,48.0,42.8,30.08,North,0,1.0,7.0,82,0.00,,---,0.00,VWS V14.01,2013-09-14 07:18:00,
2013-09-14 03:23:00,48.0,43.1,30.07,NE,45,3.0,7.0,83,0.00,,---,0.00,VWS V14.01,2013-09-14 07:23:00,
2013-09-14 03:28:00,48.0,43.1,30.07,NNW,338,1.0,7.0,83,0.00,,---,0.00,VWS V14.01,2013-09-14 07:28:00,
2013-09-14 03:34:00,48.0,43.1,30.07,NNE,22,3.0,7.0,83,0.00,,---,0.00,VWS V14.01,2013-09-14 07:34:00,
2013-09-14 03:39:00,48.0,43.1,30.08,North,0,1.0,7.0,83,0.00,,---,0.00,VWS V14.01,2013-09-14 07:39:00,
2013-09-14 03:44:00,48.0,42.8,30.08,NNW,338,5.0,9.0,82,0.00,,---,0.00,VWS V14.01,2013-09-14 07:44:00,
2013-09-14 03:49:00,48.0,42.8,30.08,North,0,1.0,9.0,82,0.00,,---,0.00,VWS V14.01,2013-09-14 07:49:00,
2013-09-14 03:54:00,48.0,42.8,30.08,NNE,22,3.0,9.0,82,0.00,,---,0.00,VWS V14.01,2013-09-14 07:54:00,
2013-09-14 03:59:00,48.0,42.8,30.08,NNE,22,5.0,9.0,82,0.00,,---,0.00,VWS V14.01,2013-09-14 07:59:00,
2013-09-14 04:04:00,48.0,42.8,30.08,North,0,2.0,5.0,82,0.00,,---,0.00,VWS V14.01,2013-09-14 08:04:00,
2013-09-14 04:09:00,48.0,43.1,30.08,NE,45,4.0,6.0,83,0.00,,---,0.00,VWS V14.01,2013-09-14 08:09:00,
2013-09-14 04:14:00,48.0,43.1,30.09,North,0,1.0,6.0,83,0.00,,---,0.00,VWS V14.01,2013-09-14 08:14:00,
2013-09-14 04:19:00,48.0,43.1,30.09,NNW,338,4.0,5.0,83,0.00,,---,0.00,VWS V14.01,2013-09-14 08:19:00,
2013-09-14 04:25:00,48.0,42.8,30.08,NW,315,1.0,8.0,82,0.00,,---,0.00,VWS V14.01,2013-09-14 08:25:00,
2013-09-14 04:30:00,48.0,43.1,30.08,NNE,22,3.0,8.0,83,0.00,,---,0.00,VWS V14.01,2013-09-14 08:30:00,
2013-09-14 04:35:00,48.0,43.1,30.08,North,0,2.0,8.0,83,0.00,,---,0.00,VWS V14.01,2013-09-14 08:35:00,
2013-09-14 04:40:00,48.0,42.8,30.08,NNW,338,2.0,3.0,82,0.00,,---,0.00,VWS V14.01,2013-09-14 08:40:00,
2013-09-14 04:45:00,48.0,42.8,30.09,ENE,68,2.0,6.0,82,0.00,,---,0.00,VWS V14.01,2013-09-14 08:45:00,
2013-09-14 04:50:00,48.0,42.8,30.09,WNW,292,0.0,6.0,82,0.00,,---,0.00,VWS V14.01,2013-09-14 08:50:00,
2013-09-14 04:55:00,48.0,43.1,30.09,North,0,3.0,6.0,83,0.00,,---,0.00,VWS V14.01,2013-09-14 08:55:00,
2013-09-14 05:00:00,48.0,43.1,30.09,North,0,4.0,5.0,83,0.00,,---,0.00,VWS V14.01,2013-09-14 09:00:00,
2013-09-14 05:05:00,48.0,43.1,30.09,NNW,338,1.0,5.0,83,0.00,,---,0.00,VWS V14.01,2013-09-14 09:05:00,
2013-09-14 05:10:00,48.0,43.1,30.09,NNE,22,1.0,6.0,83,0.00,,---,0.00,VWS V14.01,2013-09-14 09:10:00,
2013-09-14 05:15:00,48.0,42.8,30.09,North,0,3.0,6.0,82,0.00,,---,0.00,VWS V14.01,2013-09-14 09:15:00,
2013-09-14 05:20:00,48.0,42.5,30.09,North,0,1.0,5.0,81,0.00,,---,0.00,VWS V14.01,2013-09-14 09:20:00,
2013-09-14 05:25:00,48.0,42.5,30.10,North,0,1.0,5.0,81,0.00,,---,0.00,VWS V14.01,2013-09-14 09:25:00,
2013-09-14 05:30:00,48.0,42.5,30.10,North,0,1.0,5.0,81,0.00,,---,0.00,VWS V14.01,2013-09-14 09:30:00,
2013-09-14 05:36:00,48.0,42.1,30.10,NW,315,1.0,8.0,80,0.00,,---,0.00,VWS V14.01,2013-09-14 09:36:00,
2013-09-14 05:41:00,48.0,42.5,30.10,NNE,22,1.0,4.0,81,0.00,,---,0.00,VWS V14.01,2013-09-14 09:41:00,
2013-09-14 05:46:00,48.0,42.5,30.10,NE,45,2.0,5.0,81,0.00,,---,0.00,VWS V14.01,2013-09-14 09:46:00,
2013-09-14 05:51:00,48.0,42.1,30.10,North,0,2.0,6.0,80,0.00,,---,0.00,VWS V14.01,2013-09-14 09:51:00,
2013-09-14 05:56:00,48.0,42.5,30.10,NNW,338,2.0,6.0,81,0.00,,---,0.00,VWS V14.01,2013-09-14 09:56:00,
2013-09-14 06:01:00,48.0,41.8,30.10,North,0,1.0,5.0,79,0.00,,---,0.00,VWS V14.01,2013-09-14 10:01:00,
2013-09-14 06:06:00,48.0,41.8,30.10,NNW,338,3.0,5.0,79,0.00,,---,0.00,VWS V14.01,2013-09-14 10:06:00,
2013-09-14 06:11:00,48.0,41.5,30.10,North,0,3.0,5.0,78,0.00,,---,0.00,VWS V14.01,2013-09-14 10:11:00,
2013-09-14 06:16:00,48.0,41.5,30.10,West,270,1.0,5.0,78,0.00,,---,0.00,VWS V14.01,2013-09-14 10:16:00,
2013-09-14 06:21:00,48.0,41.2,30.10,NNW,338,1.0,5.0,77,0.00,,---,0.00,VWS V14.01,2013-09-14 10:21:00,
2013-09-14 06:26:00,48.0,40.8,30.10,NNW,338,3.0,6.0,76,0.00,,---,0.00,VWS V14.01,2013-09-14 10:26:00,
2013-09-14 06:31:00,48.0,40.8,30.11,NNW,338,2.0,8.0,76,0.00,,---,0.00,VWS V14.01,2013-09-14 10:31:00,
2013-09-14 06:36:00,48.0,41.2,30.11,North,0,2.0,8.0,77,0.00,,---,0.00,VWS V14.01,2013-09-14 10:36:00,
2013-09-14 06:41:00,48.0,41.2,30.11,North,0,2.0,5.0,77,0.00,,---,0.00,VWS V14.01,2013-09-14 10:41:00,
2013-09-14 06:47:00,48.0,41.2,30.11,NW,315,6.0,6.0,77,0.00,,---,0.00,VWS V14.01,2013-09-14 10:47:00,
2013-09-14 06:52:00,48.0,41.2,30.11,NNW,338,6.0,8.0,77,0.00,,---,0.00,VWS V14.01,2013-09-14 10:52:00,
2013-09-14 06:57:00,48.0,41.2,30.11,North,0,3.0,9.0,77,0.00,,---,0.00,VWS V14.01,2013-09-14 10:57:00,
2013-09-14 07:02:00,48.0,41.2,30.11,NNW,338,3.0,5.0,77,0.00,,---,0.00,VWS V14.01,2013-09-14 11:02:00,
2013-09-14 07:07:00,48.0,41.2,30.11,NNW,338,3.0,7.0,77,0.00,,---,0.00,VWS V14.01,2013-09-14 11:07:00,
2013-09-14 07:12:00,48.0,41.5,30.12,NNW,338,5.0,10.0,78,0.00,,---,0.00,VWS V14.01,2013-09-14 11:12:00,
2013-09-14 07:17:00,48.0,41.5,30.12,North,0,3.0,10.0,78,0.00,,---,0.00,VWS V14.01,2013-09-14 11:17:00,
2013-09-14 07:22:00,48.0,41.8,30.12,NNW,338,9.0,11.0,79,0.00,,---,0.00,VWS V14.01,2013-09-14 11:22:00,
2013-09-14 07:27:00,48.0,41.8,30.12,North,0,3.0,11.0,79,0.00,,---,0.00,VWS V14.01,2013-09-14 11:27:00,
2013-09-14 07:32:00,48.0,41.8,30.13,NNW,338,6.0,11.0,79,0.00,,---,0.00,VWS V14.01,2013-09-14 11:32:00,
2013-09-14 07:38:00,48.0,41.8,30.13,NNW,338,3.0,11.0,79,0.00,,---,0.00,VWS V14.01,2013-09-14 11:38:00,
2013-09-14 07:43:00,48.0,42.1,30.13,NW,315,3.0,10.0,80,0.00,,---,0.00,VWS V14.01,2013-09-14 11:43:00,
2013-09-14 07:48:00,48.0,42.1,30.13,NNW,338,6.0,10.0,80,0.00,,---,0.00,VWS V14.01,2013-09-14 11:48:00,
2013-09-14 07:53:00,48.0,42.1,30.13,NW,315,6.0,11.0,80,0.00,,---,0.00,VWS V14.01,2013-09-14 11:53:00,
2013-09-14 07:58:00,48.0,41.8,30.13,North,0,8.0,11.0,79,0.00,,---,0.00,VWS V14.01,2013-09-14 11:58:00,
2013-09-14 08:03:00,48.0,41.8,30.13,North,0,5.0,9.0,79,0.00,,---,0.00,VWS V14.01,2013-09-14 12:03:00,
2013-09-14 08:08:00,48.0,41.8,30.13,NNW,338,6.0,12.0,79,0.00,,---,0.00,VWS V14.01,2013-09-14 12:08:00,
2013-09-14 08:13:00,48.0,41.8,30.14,NNW,338,3.0,12.0,79,0.00,,---,0.00,VWS V14.01,2013-09-14 12:13:00,
2013-09-14 08:18:00,48.0,42.1,30.14,NNW,338,6.0,12.0,80,0.00,,---,0.00,VWS V14.01,2013-09-14 12:18:00,
2013-09-14 08:23:00,48.0,42.1,30.14,NNE,22,1.0,6.0,80,0.00,,---,0.00,VWS V14.01,2013-09-14 12:23:00,
2013-09-14 08:28:00,48.0,41.5,30.15,NNW,338,6.0,11.0,78,0.00,,---,0.00,VWS V14.01,2013-09-14 12:28:00,
2013-09-14 08:33:00,49.0,42.5,30.15,WNW,292,3.0,11.0,78,0.00,,---,0.00,VWS V14.01,2013-09-14 12:33:00,
2013-09-14 08:39:00,49.0,42.5,30.15,WNW,292,2.0,11.0,78,0.00,,---,0.00,VWS V14.01,2013-09-14 12:39:00,
2013-09-14 08:44:00,49.0,42.5,30.15,WNW,292,7.0,10.0,78,0.00,,---,0.00,VWS V14.01,2013-09-14 12:44:00,
2013-09-14 08:49:00,49.0,42.1,30.15,NNW,338,3.0,10.0,77,0.00,,---,0.00,VWS V14.01,2013-09-14 12:49:00,
2013-09-14 08:54:00,49.0,42.1,30.15,NNW,338,3.0,10.0,77,0.00,,---,0.00,VWS V14.01,2013-09-14 12:54:00,
2013-09-14 08:59:00,49.0,41.1,30.15,NNE,22,6.0,12.0,74,0.00,,---,0.00,VWS V14.01,2013-09-14 12:59:00,
2013-09-14 09:04:00,49.0,41.4,30.15,North,0,3.0,10.0,75,0.00,,---,0.00,VWS V14.01,2013-09-14 13:04:00,
2013-09-14 09:09:00,49.0,41.4,30.15,NW,315,1.0,10.0,75,0.00,,---,0.00,VWS V14.01,2013-09-14 13:09:00,
2013-09-14 09:14:00,49.0,41.4,30.15,North,0,1.0,10.0,75,0.00,,---,0.00,VWS V14.01,2013-09-14 13:14:00,
2013-09-14 09:19:00,49.0,41.4,30.16,NW,315,5.0,10.0,75,0.00,,---,0.00,VWS V14.01,2013-09-14 13:19:00,
2013-09-14 09:24:00,49.0,41.1,30.16,NNW,338,3.0,11.0,74,0.00,,---,0.00,VWS V14.01,2013-09-14 13:24:00,
2013-09-14 09:29:00,49.0,41.1,30.16,NNW,338,5.0,11.0,74,0.00,,---,0.00,VWS V14.01,2013-09-14 13:29:00,
2013-09-14 09:35:00,49.0,41.4,30.16,NNW,338,1.0,12.0,75,0.00,,---,0.00,VWS V14.01,2013-09-14 13:35:00,
2013-09-14 09:40:00,49.0,41.4,30.16,NNW,338,3.0,3.0,75,0.00,,---,0.00,VWS V14.01,2013-09-14 13:40:00,
2013-09-14 09:45:00,49.0,40.7,30.16,North,0,5.0,12.0,73,0.00,,---,0.00,VWS V14.01,2013-09-14 13:45:00,
2013-09-14 09:50:00,49.0,40.0,30.17,NNW,338,6.0,12.0,71,0.00,,---,0.00,VWS V14.01,2013-09-14 13:50:00,
2013-09-14 09:55:00,50.0,40.2,30.17,NNW,338,10.0,15.0,69,0.00,,---,0.00,VWS V14.01,2013-09-14 13:55:00,
2013-09-14 10:00:00,51.0,41.2,30.16,NNW,338,5.0,9.0,69,0.00,,---,0.00,VWS V14.01,2013-09-14 14:00:00,
2013-09-14 10:05:00,52.0,41.4,30.16,NNW,338,1.0,12.0,67,0.00,,---,0.00,VWS V14.01,2013-09-14 14:05:00,
2013-09-14 10:10:00,52.0,40.6,30.17,WNW,292,5.0,12.0,65,0.00,,---,0.00,VWS V14.01,2013-09-14 14:10:00,
2013-09-14 10:15:00,52.0,39.8,30.17,NNW,338,5.0,12.0,63,0.00,,---,0.00,VWS V14.01,2013-09-14 14:15:00,
2013-09-14 10:20:00,52.0,39.8,30.16,West,270,1.0,5.0,63,0.00,,---,0.00,VWS V14.01,2013-09-14 14:20:00,
2013-09-14 10:25:00,53.0,41.6,30.17,NNW,338,3.0,10.0,65,0.00,,---,0.00,VWS V14.01,2013-09-14 14:25:00,
2013-09-14 10:31:00,53.0,41.2,30.17,NNW,338,2.0,10.0,64,0.00,,---,0.00,VWS V14.01,2013-09-14 14:31:00,
2013-09-14 10:36:00,53.0,40.8,30.17,North,0,4.0,10.0,63,0.00,,---,0.00,VWS V14.01,2013-09-14 14:36:00,
2013-09-14 10:41:00,54.0,40.4,30.16,NNW,338,5.0,7.0,60,0.00,,---,0.00,VWS V14.01,2013-09-14 14:41:00,
2013-09-14 10:46:00,54.0,40.4,30.16,West,270,4.0,9.0,60,0.00,,---,0.00,VWS V14.01,2013-09-14 14:46:00,
2013-09-14 10:51:00,55.0,41.4,30.16,NNW,338,3.0,10.0,60,0.00,,---,0.00,VWS V14.01,2013-09-14 14:51:00,
2013-09-14 10:56:00,54.0,39.1,30.16,NW,315,4.0,10.0,57,0.00,,---,0.00,VWS V14.01,2013-09-14 14:56:00,
2013-09-14 11:01:00,54.0,39.6,30.16,North,0,2.0,5.0,58,0.00,,---,0.00,VWS V14.01,2013-09-14 15:01:00,
2013-09-14 11:06:00,55.0,40.5,30.16,NNW,338,3.0,10.0,58,0.00,,---,0.00,VWS V14.01,2013-09-14 15:06:00,
2013-09-14 11:11:00,55.0,40.5,30.16,WNW,292,3.0,10.0,58,0.00,,---,0.00,VWS V14.01,2013-09-14 15:11:00,
2013-09-14 11:16:00,55.0,39.6,30.16,West,270,10.0,13.0,56,0.00,,---,0.00,VWS V14.01,2013-09-14 15:16:00,
2013-09-14 11:21:00,54.0,39.1,30.16,NNW,338,4.0,13.0,57,0.00,,---,0.00,VWS V14.01,2013-09-14 15:21:00,
2013-09-14 11:27:00,55.0,40.5,30.16,NNW,338,4.0,13.0,58,0.00,,---,0.00,VWS V14.01,2013-09-14 15:27:00,
2013-09-14 11:32:00,55.0,40.5,30.16,West,270,5.0,14.0,58,0.00,,---,0.00,VWS V14.01,2013-09-14 15:32:00,
2013-09-14 11:37:00,56.0,41.0,30.16,NW,315,11.0,14.0,57,0.00,,---,0.00,VWS V14.01,2013-09-14 15:37:00,
2013-09-14 11:42:00,56.0,41.0,30.16,NW,315,5.0,14.0,57,0.00,,---,0.00,VWS V14.01,2013-09-14 15:42:00,
2013-09-14 11:47:00,55.0,39.6,30.16,NNW,338,5.0,14.0,56,0.00,,---,0.00,VWS V14.01,2013-09-14 15:47:00,
2013-09-14 11:52:00,56.0,42.3,30.16,WNW,292,8.0,14.0,60,0.00,,---,0.00,VWS V14.01,2013-09-14 15:52:00,
2013-09-14 11:57:00,55.0,39.2,30.17,WSW,248,4.0,15.0,55,0.00,,---,0.00,VWS V14.01,2013-09-14 15:57:00,
2013-09-14 12:02:00,55.0,40.1,30.17,West,270,6.0,11.0,57,0.00,,---,0.00,VWS V14.01,2013-09-14 16:02:00,
2013-09-14 12:08:00,56.0,41.0,30.18,NW,315,8.0,11.0,57,0.00,,---,0.00,VWS V14.01,2013-09-14 16:08:00,
2013-09-14 12:13:00,55.0,39.6,30.18,West,270,2.0,13.0,56,0.00,,---,0.00,VWS V14.01,2013-09-14 16:13:00,
2013-09-14 12:18:00,56.0,41.0,30.17,NW,315,8.0,15.0,57,0.00,,---,0.00,VWS V14.01,2013-09-14 16:18:00,
2013-09-14 12:23:00,56.0,41.5,30.17,WNW,292,11.0,13.0,58,0.00,,---,0.00,VWS V14.01,2013-09-14 16:23:00,
2013-09-14 12:28:00,56.0,41.0,30.17,ESE,112,6.0,13.0,57,0.00,,---,0.00,VWS V14.01,2013-09-14 16:28:00,
2013-09-14 12:33:00,56.0,40.5,30.16,WNW,292,8.0,13.0,56,0.00,,---,0.00,VWS V14.01,2013-09-14 16:33:00,
2013-09-14 12:38:00,56.0,40.5,30.16,WNW,292,6.0,14.0,56,0.00,,---,0.00,VWS V14.01,2013-09-14 16:38:00,
2013-09-14 12:43:00,57.0,41.5,30.16,West,270,7.0,15.0,56,0.00,,---,0.00,VWS V14.01,2013-09-14 16:43:00,
2013-09-14 12:48:00,57.0,41.0,30.16,NW,315,5.0,15.0,55,0.00,,---,0.00,VWS V14.01,2013-09-14 16:48:00,
2013-09-14 12:54:00,58.0,42.4,30.16,WNW,292,5.0,15.0,56,0.00,,---,0.00,VWS V14.01,2013-09-14 16:54:00,
2013-09-14 12:59:00,57.0,40.1,30.17,NW,315,4.0,15.0,53,0.00,,---,0.00,VWS V14.01,2013-09-14 16:59:00,
2013-09-14 13:04:00,57.0,40.1,30.17,NNW,338,5.0,14.0,53,0.00,,---,0.00,VWS V14.01,2013-09-14 17:04:00,
2013-09-14 13:09:00,57.0,41.0,30.16,NW,315,5.0,16.0,55,0.00,,---,0.00,VWS V14.01,2013-09-14 17:09:00,
2013-09-14 13:14:00,57.0,40.1,30.17,NW,315,6.0,16.0,53,0.00,,---,0.00,VWS V14.01,2013-09-14 17:14:00,
2013-09-14 13:19:00,57.0,40.1,30.17,NW,315,4.0,16.0,53,0.00,,---,0.00,VWS V14.01,2013-09-14 17:19:00,
2013-09-14 13:24:00,57.0,39.6,30.17,WNW,292,11.0,13.0,52,0.00,,---,0.00,VWS V14.01,2013-09-14 17:24:00,
2013-09-14 13:29:00,57.0,39.6,30.17,WNW,292,13.0,13.0,52,0.00,,---,0.00,VWS V14.01,2013-09-14 17:29:00,
2013-09-14 13:34:00,57.0,38.6,30.17,WNW,292,9.0,16.0,50,0.00,,---,0.00,VWS V14.01,2013-09-14 17:34:00,
2013-09-14 13:40:00,57.0,39.1,30.16,WNW,292,10.0,13.0,51,0.00,,---,0.00,VWS V14.01,2013-09-14 17:40:00,
2013-09-14 13:45:00,58.0,40.0,30.16,WNW,292,4.0,13.0,51,0.00,,---,0.00,VWS V14.01,2013-09-14 17:45:00,
2013-09-14 13:50:00,59.0,41.4,30.16,West,270,6.0,13.0,52,0.00,,---,0.00,VWS V14.01,2013-09-14 17:50:00,
2013-09-14 13:55:00,58.0,38.4,30.16,NNW,338,8.0,15.0,48,0.00,,---,0.00,VWS V14.01,2013-09-14 17:55:00,
2013-09-14 14:00:00,58.0,37.9,30.16,NNW,338,4.0,5.0,47,0.00,,---,0.00,VWS V14.01,2013-09-14 18:00:00,
2013-09-14 14:05:00,58.0,38.4,30.16,WNW,292,5.0,14.0,48,0.00,,---,0.00,VWS V14.01,2013-09-14 18:05:00,
2013-09-14 14:10:00,58.0,39.5,30.16,NW,315,5.0,14.0,50,0.00,,---,0.00,VWS V14.01,2013-09-14 18:10:00,
2013-09-14 14:15:00,59.0,39.4,30.15,WSW,248,5.0,14.0,48,0.00,,---,0.00,VWS V14.01,2013-09-14 18:15:00,
2013-09-14 14:20:00,59.0,38.8,30.15,WNW,292,8.0,10.0,47,0.00,,---,0.00,VWS V14.01,2013-09-14 18:20:00,
2013-09-14 14:26:00,59.0,39.4,30.16,WNW,292,10.0,13.0,48,0.00,,---,0.00,VWS V14.01,2013-09-14 18:26:00,
2013-09-14 14:31:00,59.0,37.1,30.15,West,270,10.0,13.0,44,0.00,,---,0.00,VWS V14.01,2013-09-14 18:31:00,
2013-09-14 14:36:00,59.0,38.8,30.15,NNW,338,5.0,13.0,47,0.00,,---,0.00,VWS V14.01,2013-09-14 18:36:00,
2013-09-14 14:41:00,59.0,37.7,30.15,WNW,292,7.0,13.0,45,0.00,,---,0.00,VWS V14.01,2013-09-14 18:41:00,
2013-09-14 14:46:00,59.0,37.7,30.15,WNW,292,5.0,13.0,45,0.00,,---,0.00,VWS V14.01,2013-09-14 18:46:00,
2013-09-14 14:51:00,59.0,38.8,30.15,WNW,292,2.0,13.0,47,0.00,,---,0.00,VWS V14.01,2013-09-14 18:51:00,
2013-09-14 14:56:00,59.0,37.7,30.15,WNW,292,5.0,14.0,45,0.00,,---,0.00,VWS V14.01,2013-09-14 18:56:00,
2013-09-14 15:02:00,59.0,38.3,30.15,WNW,292,9.0,10.0,46,0.00,,---,0.00,VWS V14.01,2013-09-14 19:02:00,
2013-09-14 15:07:00,59.0,37.1,30.14,WNW,292,9.0,12.0,44,0.00,,---,0.00,VWS V14.01,2013-09-14 19:07:00,
2013-09-14 15:12:00,59.0,37.7,30.15,West,270,8.0,14.0,45,0.00,,---,0.00,VWS V14.01,2013-09-14 19:12:00,
2013-09-14 15:17:00,60.0,38.6,30.15,NNW,338,5.0,14.0,45,0.00,,---,0.00,VWS V14.01,2013-09-14 19:17:00,
2013-09-14 15:22:00,60.0,38.6,30.15,West,270,4.0,11.0,45,0.00,,---,0.00,VWS V14.01,2013-09-14 19:22:00,
2013-09-14 15:27:00,60.0,38.0,30.15,NNW,338,3.0,13.0,44,0.00,,---,0.00,VWS V14.01,2013-09-14 19:27:00,
2013-09-14 15:32:00,60.0,38.0,30.15,WNW,292,6.0,13.0,44,0.00,,---,0.00,VWS V14.01,2013-09-14 19:32:00,
2013-09-14 15:37:00,60.0,38.0,30.15,NW,315,9.0,14.0,44,0.00,,---,0.00,VWS V14.01,2013-09-14 19:37:00,
2013-09-14 15:43:00,60.0,37.5,30.15,West,270,3.0,12.0,43,0.00,,---,0.00,VWS V14.01,2013-09-14 19:43:00,
2013-09-14 15:48:00,60.0,36.9,30.15,WNW,292,3.0,12.0,42,0.00,,---,0.00,VWS V14.01,2013-09-14 19:48:00,
2013-09-14 15:53:00,60.0,38.0,30.15,NNW,338,3.0,12.0,44,0.00,,---,0.00,VWS V14.01,2013-09-14 19:53:00,
2013-09-14 15:58:00,60.0,37.5,30.14,NNW,338,3.0,12.0,43,0.00,,---,0.00,VWS V14.01,2013-09-14 19:58:00,
2013-09-14 16:03:00,60.0,36.2,30.14,NNW,338,4.0,8.0,41,0.00,,---,0.00,VWS V14.01,2013-09-14 20:03:00,
2013-09-14 16:08:00,60.0,35.0,30.14,NNW,338,3.0,10.0,39,0.00,,---,0.00,VWS V14.01,2013-09-14 20:08:00,
2013-09-14 16:13:00,60.0,35.0,30.14,WNW,292,5.0,10.0,39,0.00,,---,0.00,VWS V14.01,2013-09-14 20:13:00,
2013-09-14 16:18:00,60.0,36.2,30.14,NW,315,1.0,10.0,41,0.00,,---,0.00,VWS V14.01,2013-09-14 20:18:00,
2013-09-14 16:23:00,61.0,33.9,30.14,WNW,292,2.0,10.0,36,0.00,,---,0.00,VWS V14.01,2013-09-14 20:23:00,
2013-09-14 16:29:00,61.0,35.9,30.14,NW,315,3.0,10.0,39,0.00,,---,0.00,VWS V14.01,2013-09-14 20:29:00,
2013-09-14 16:34:00,61.0,35.2,30.14,WNW,292,6.0,10.0,38,0.00,,---,0.00,VWS V14.01,2013-09-14 20:34:00,
2013-09-14 16:39:00,60.0,35.0,30.14,WNW,292,6.0,11.0,39,0.00,,---,0.00,VWS V14.01,2013-09-14 20:39:00,
2013-09-14 16:44:00,61.0,35.9,30.14,NW,315,3.0,10.0,39,0.00,,---,0.00,VWS V14.01,2013-09-14 20:44:00,
2013-09-14 16:49:00,61.0,35.2,30.14,North,0,3.0,10.0,38,0.00,,---,0.00,VWS V14.01,2013-09-14 20:49:00,
2013-09-14 16:54:00,61.0,35.2,30.14,WNW,292,3.0,10.0,38,0.00,,---,0.00,VWS V14.01,2013-09-14 20:54:00,
2013-09-14 16:59:00,61.0,37.8,30.14,NNW,338,3.0,10.0,42,0.00,,---,0.00,VWS V14.01,2013-09-14 20:59:00,
2013-09-14 17:05:00,61.0,37.8,30.14,SW,225,2.0,7.0,42,0.00,,---,0.00,VWS V14.01,2013-09-14 21:05:00,
2013-09-14 17:10:00,61.0,39.0,30.15,West,270,5.0,8.0,44,0.00,,---,0.00,VWS V14.01,2013-09-14 21:10:00,
2013-09-14 17:15:00,61.0,37.8,30.15,NE,45,2.0,10.0,42,0.01,,---,0.01,VWS V14.01,2013-09-14 21:15:00,
2013-09-14 17:20:00,61.0,39.5,30.15,WNW,292,2.0,5.0,45,0.01,,---,0.01,VWS V14.01,2013-09-14 21:20:00,
2013-09-14 17:25:00,60.0,39.2,30.15,WNW,292,1.0,8.0,46,0.01,,---,0.01,VWS V14.01,2013-09-14 21:25:00,
2013-09-14 17:30:00,60.0,39.7,30.15,NNW,338,6.0,10.0,47,0.01,,---,0.01,VWS V14.01,2013-09-14 21:30:00,
2013-09-14 17:35:00,59.0,38.3,30.15,NNW,338,7.0,10.0,46,0.01,,---,0.01,VWS V14.01,2013-09-14 21:35:00,
2013-09-14 17:40:00,59.0,39.9,30.15,WNW,292,6.0,9.0,49,0.01,,---,0.01,VWS V14.01,2013-09-14 21:40:00,
2013-09-14 17:46:00,60.0,40.3,30.15,NNW,338,3.0,9.0,48,0.01,,---,0.01,VWS V14.01,2013-09-14 21:46:00,
2013-09-14 17:51:00,59.0,38.3,30.15,WNW,292,3.0,9.0,46,0.01,,---,0.01,VWS V14.01,2013-09-14 21:51:00,
2013-09-14 17:56:00,59.0,37.7,30.16,NNW,338,8.0,9.0,45,0.01,,---,0.01,VWS V14.01,2013-09-14 21:56:00,
2013-09-14 18:01:00,59.0,38.8,30.16,WNW,292,2.0,5.0,47,0.01,,---,0.01,VWS V14.01,2013-09-14 22:01:00,
2013-09-14 18:06:00,58.0,36.2,30.15,NNW,338,5.0,11.0,44,0.01,,---,0.01,VWS V14.01,2013-09-14 22:06:00,
2013-09-14 18:11:00,58.0,36.8,30.16,WNW,292,2.0,11.0,45,0.01,,---,0.01,VWS V14.01,2013-09-14 22:11:00,
2013-09-14 18:16:00,59.0,36.6,30.16,North,0,3.0,11.0,43,0.01,,---,0.01,VWS V14.01,2013-09-14 22:16:00,
2013-09-14 18:21:00,58.0,35.1,30.16,NNW,338,5.0,9.0,42,0.00,,---,0.01,VWS V14.01,2013-09-14 22:21:00,
2013-09-14 18:27:00,59.0,34.7,30.16,NNW,338,5.0,9.0,40,0.00,,---,0.01,VWS V14.01,2013-09-14 22:27:00,
2013-09-14 18:32:00,58.0,31.2,30.16,NW,315,3.0,9.0,36,0.00,,---,0.01,VWS V14.01,2013-09-14 22:32:00,
2013-09-14 18:37:00,58.0,32.6,30.16,NNW,338,5.0,9.0,38,0.00,,---,0.01,VWS V14.01,2013-09-14 22:37:00,
2013-09-14 18:42:00,58.0,34.5,30.16,WNW,292,1.0,4.0,41,0.00,,---,0.01,VWS V14.01,2013-09-14 22:42:00,
2013-09-14 18:47:00,58.0,35.1,30.16,WNW,292,1.0,5.0,42,0.00,,---,0.01,VWS V14.01,2013-09-14 22:47:00,
2013-09-14 18:52:00,58.0,35.1,30.15,NW,315,1.0,5.0,42,0.00,,---,0.01,VWS V14.01,2013-09-14 22:52:00,
2013-09-14 18:57:00,57.0,35.3,30.16,NNW,338,1.0,5.0,44,0.00,,---,0.01,VWS V14.01,2013-09-14 22:57:00,
2013-09-14 19:02:00,56.0,35.0,30.16,WNW,292,0.0,2.0,45,0.00,,---,0.01,VWS V14.01,2013-09-14 23:02:00,
2013-09-14 19:07:00,56.0,36.6,30.16,WNW,292,3.0,5.0,48,0.00,,---,0.01,VWS V14.01,2013-09-14 23:07:00,
2013-09-14 19:12:00,55.0,36.2,30.16,SW,225,2.0,5.0,49,0.00,,---,0.01,VWS V14.01,2013-09-14 23:12:00,
2013-09-14 19:17:00,54.0,35.8,30.16,SW,225,3.0,5.0,50,0.00,,---,0.01,VWS V14.01,2013-09-14 23:17:00,
2013-09-14 19:22:00,54.0,36.3,30.16,SW,225,3.0,3.0,51,0.00,,---,0.01,VWS V14.01,2013-09-14 23:22:00,
2013-09-14 19:27:00,53.0,36.3,30.16,SW,225,2.0,5.0,53,0.00,,---,0.01,VWS V14.01,2013-09-14 23:27:00,
2013-09-14 19:33:00,53.0,37.7,30.16,SW,225,1.0,5.0,56,0.00,,---,0.01,VWS V14.01,2013-09-14 23:33:00,
2013-09-14 19:38:00,52.0,37.7,30.16,SW,225,3.0,5.0,58,0.00,,---,0.01,VWS V14.01,2013-09-14 23:38:00,
2013-09-14 19:43:00,52.0,37.7,30.15,SW,225,1.0,3.0,58,0.00,,---,0.01,VWS V14.01,2013-09-14 23:43:00,
2013-09-14 19:48:00,51.0,37.6,30.16,WSW,248,3.0,3.0,60,0.00,,---,0.01,VWS V14.01,2013-09-14 23:48:00,
2013-09-14 19:53:00,51.0,38.5,30.16,WSW,248,2.0,3.0,62,0.00,,---,0.01,VWS V14.01,2013-09-14 23:53:00,
2013-09-14 19:58:00,50.0,37.9,30.16,SW,225,1.0,3.0,63,0.00,,---,0.01,VWS V14.01,2013-09-14 23:58:00,
2013-09-14 20:03:00,50.0,38.3,30.16,WSW,248,1.0,3.0,64,0.00,,---,0.01,VWS V14.01,2013-09-15 00:03:00,
2013-09-14 20:08:00,50.0,38.7,30.16,WSW,248,1.0,3.0,65,0.00,,---,0.01,VWS V14.01,2013-09-15 00:08:00,
2013-09-14 20:14:00,49.0,37.8,30.17,SW,225,1.0,3.0,65,0.00,,---,0.01,VWS V14.01,2013-09-15 00:14:00,
2013-09-14 20:19:00,49.0,38.2,30.16,SW,225,0.0,3.0,66,0.00,,---,0.01,VWS V14.01,2013-09-15 00:19:00,
2013-09-14 20:24:00,49.0,38.9,30.16,SW,225,0.0,0.0,68,0.00,,---,0.01,VWS V14.01,2013-09-15 00:24:00,
2013-09-14 20:29:00,49.0,39.3,30.17,SW,225,0.0,0.0,69,0.00,,---,0.01,VWS V14.01,2013-09-15 00:29:00,
2013-09-14 20:34:00,48.0,38.7,30.17,SW,225,0.0,1.0,70,0.00,,---,0.01,VWS V14.01,2013-09-15 00:34:00,
2013-09-14 20:39:00,48.0,39.1,30.17,SW,225,0.0,1.0,71,0.00,,---,0.01,VWS V14.01,2013-09-15 00:39:00,
2013-09-14 20:44:00,48.0,39.4,30.17,SW,225,0.0,0.0,72,0.00,,---,0.01,VWS V14.01,2013-09-15 00:44:00,
2013-09-14 20:49:00,47.0,39.2,30.18,SW,225,0.0,0.0,74,0.00,,---,0.01,VWS V14.01,2013-09-15 00:49:00,
2013-09-14 20:54:00,47.0,39.2,30.18,SW,225,0.0,0.0,74,0.00,,---,0.01,VWS V14.01,2013-09-15 00:54:00,
2013-09-14 21:00:00,47.0,39.2,30.18,SW,225,0.0,0.0,74,0.00,,---,0.01,VWS V14.01,2013-09-15 01:00:00,
2013-09-14 21:05:00,46.0,38.5,30.18,SW,225,0.0,0.0,75,0.00,,---,0.01,VWS V14.01,2013-09-15 01:05:00,
2013-09-14 21:10:00,46.0,38.9,30.18,SW,225,0.0,0.0,76,0.00,,---,0.01,VWS V14.01,2013-09-15 01:10:00,
2013-09-14 21:15:00,46.0,39.2,30.18,SW,225,0.0,0.0,77,0.00,,---,0.01,VWS V14.01,2013-09-15 01:15:00,
2013-09-14 21:20:00,46.0,39.2,30.19,SW,225,0.0,0.0,77,0.00,,---,0.01,VWS V14.01,2013-09-15 01:20:00,
2013-09-14 21:25:00,46.0,39.2,30.19,SW,225,0.0,0.0,77,0.00,,---,0.01,VWS V14.01,2013-09-15 01:25:00,
2013-09-14 21:30:00,45.0,38.6,30.19,West,270,2.0,2.0,78,0.00,,---,0.01,VWS V14.01,2013-09-15 01:30:00,
2013-09-14 21:35:00,45.0,38.6,30.19,WSW,248,0.0,2.0,78,0.00,,---,0.01,VWS V14.01,2013-09-15 01:35:00,
2013-09-14 21:40:00,45.0,38.9,30.20,SW,225,0.0,1.0,79,0.00,,---,0.01,VWS V14.01,2013-09-15 01:40:00,
2013-09-14 21:45:00,45.0,38.9,30.19,SW,225,0.0,1.0,79,0.00,,---,0.01,VWS V14.01,2013-09-15 01:45:00,
2013-09-14 21:51:00,45.0,38.9,30.19,South,180,0.0,1.0,79,0.00,,---,0.01,VWS V14.01,2013-09-15 01:51:00,
2013-09-14 21:56:00,45.0,39.2,30.19,South,180,0.0,1.0,80,0.00,,---,0.01,VWS V14.01,2013-09-15 01:56:00,
2013-09-14 22:01:00,45.0,39.5,30.19,South,180,0.0,1.0,81,0.00,,---,0.01,VWS V14.01,2013-09-15 02:01:00,
2013-09-14 22:06:00,45.0,39.8,30.19,South,180,1.0,1.0,82,0.00,,---,0.01,VWS V14.01,2013-09-15 02:06:00,
2013-09-14 22:11:00,45.0,39.8,30.19,SW,225,0.0,1.0,82,0.00,,---,0.01,VWS V14.01,2013-09-15 02:11:00,
2013-09-14 22:16:00,44.0,39.2,30.19,SW,225,1.0,1.0,83,0.00,,---,0.01,VWS V14.01,2013-09-15 02:16:00,
2013-09-14 22:21:00,44.0,39.2,30.19,WSW,248,0.0,0.0,83,0.00,,---,0.01,VWS V14.01,2013-09-15 02:21:00,
2013-09-14 22:26:00,44.0,39.5,30.19,South,180,1.0,1.0,84,0.00,,---,0.01,VWS V14.01,2013-09-15 02:26:00,
2013-09-14 22:31:00,44.0,39.5,30.19,South,180,1.0,1.0,84,0.00,,---,0.01,VWS V14.01,2013-09-15 02:31:00,
2013-09-14 22:37:00,43.0,38.8,30.19,SSE,158,1.0,1.0,85,0.00,,---,0.01,VWS V14.01,2013-09-15 02:37:00,
2013-09-14 22:42:00,43.0,38.8,30.19,SSE,158,0.0,1.0,85,0.00,,---,0.01,VWS V14.01,2013-09-15 02:42:00,
2013-09-14 22:47:00,43.0,38.8,30.19,SSE,158,1.0,1.0,85,0.00,,---,0.01,VWS V14.01,2013-09-15 02:47:00,
2013-09-14 22:52:00,43.0,38.8,30.19,SSE,158,0.0,1.0,85,0.00,,---,0.01,VWS V14.01,2013-09-15 02:52:00,
2013-09-14 22:57:00,43.0,39.1,30.19,South,180,1.0,1.0,86,0.00,,---,0.01,VWS V14.01,2013-09-15 02:57:00,
2013-09-14 23:02:00,43.0,39.1,30.19,South,180,0.0,1.0,86,0.00,,---,0.01,VWS V14.01,2013-09-15 03:02:00,
2013-09-14 23:07:00,42.0,38.1,30.19,South,180,0.0,1.0,86,0.00,,---,0.01,VWS V14.01,2013-09-15 03:07:00,
2013-09-14 23:12:00,42.0,38.4,30.19,South,180,1.0,1.0,87,0.00,,---,0.01,VWS V14.01,2013-09-15 03:12:00,
2013-09-14 23:17:00,42.0,38.4,30.19,South,180,0.0,1.0,87,0.00,,---,0.01,VWS V14.01,2013-09-15 03:17:00,
2013-09-14 23:22:00,42.0,38.7,30.19,South,180,0.0,1.0,88,0.00,,---,0.01,VWS V14.01,2013-09-15 03:22:00,
2013-09-14 23:28:00,42.0,38.7,30.19,South,180,0.0,1.0,88,0.00,,---,0.01,VWS V14.01,2013-09-15 03:28:00,
2013-09-14 23:33:00,42.0,38.7,30.19,South,180,0.0,1.0,88,0.00,,---,0.01,VWS V14.01,2013-09-15 03:33:00,
2013-09-14 23:38:00,42.0,39.0,30.19,South,180,0.0,1.0,89,0.00,,---,0.01,VWS V14.01,2013-09-15 03:38:00,
2013-09-14 23:43:00,42.0,39.0,30.19,South,180,0.0,0.0,89,0.00,,---,0.01,VWS V14.01,2013-09-15 03:43:00,
2013-09-14 23:48:00,42.0,39.0,30.19,South,180,0.0,1.0,89,0.00,,---,0.01,VWS V14.01,2013-09-15 03:48:00,
2013-09-14 23:53:00,41.0,38.0,30.19,South,180,0.0,1.0,89,0.00,,---,0.01,VWS V14.01,2013-09-15 03:53:00,
2013-09-14 23:58:00,41.0,38.0,30.19,South,180,0.0,1.0,89,0.00,,---,0.01,VWS V14.01,2013-09-15 03:58:00,